AUA3VG LOWW-KEWR

Flight info

Callsign AUA3VG
Flight time N/A
Altitude 34000
Route LUGEM DCT SUBEN/N0463F380 DCT GASKA DCT MASEK DCT TIVUN DCT ABNED L980 LAM L179 UGBET Q60 OKSAW DCT BIBPE DCT OKTAD DCT MEDOG DCT PEMOB DCT BAKUR DCT MALOT/M082F390 NATE RIKAL/N0478F400 N576B ANATI DCT IMORI DCT HANAA FLOSI4
Aircraft B772/H-SDE2E3FGHIJ5LORVWXY/LB1D1

Departure

Time 2026-04-24 11:17
Airport Vienna International Airport (LOWW)

Arrival

Time N/A
Airport Newark Liberty International Airport (KEWR)
Time Latitude Longitude Altitude Speed Heading
2026-04-24 10:59 48.11809 16.55989 611 ft 0 kts 76°
2026-04-24 11:08 48.11805 16.55960 611 ft 4 kts 86°
2026-04-24 11:08 48.11805 16.55934 622 ft 4 kts 99°
2026-04-24 11:09 48.11816 16.55883 627 ft 3 kts 116°
2026-04-24 11:09 48.11818 16.55878 627 ft 3 kts 117°
2026-04-24 11:11 48.11797 16.55910 623 ft 14 kts 140°
2026-04-24 11:11 48.11703 16.55978 628 ft 15 kts 177°
2026-04-24 11:12 48.11614 16.56038 630 ft 15 kts 120°
2026-04-24 11:12 48.11567 16.56180 631 ft 15 kts 115°
2026-04-24 11:12 48.11522 16.56323 629 ft 15 kts 115°
2026-04-24 11:12 48.11474 16.56471 629 ft 16 kts 116°
2026-04-24 11:13 48.11425 16.56618 628 ft 16 kts 116°
2026-04-24 11:13 48.11376 16.56763 631 ft 16 kts 116°
2026-04-24 11:13 48.11328 16.56910 634 ft 16 kts 115°
2026-04-24 11:13 48.11281 16.57057 634 ft 16 kts 115°
2026-04-24 11:14 48.11233 16.57205 633 ft 16 kts 116°
2026-04-24 11:14 48.11185 16.57352 634 ft 16 kts 116°
2026-04-24 11:14 48.11134 16.57506 631 ft 16 kts 116°
2026-04-24 11:14 48.11090 16.57623 631 ft 11 kts 137°
2026-04-24 11:15 48.11017 16.57622 626 ft 11 kts 202°
2026-04-24 11:15 48.10951 16.57564 637 ft 11 kts 223°
2026-04-24 11:15 48.10942 16.57458 636 ft 7 kts 288°
2026-04-24 11:15 48.10943 16.57454 636 ft 1 kts 289°
2026-04-24 11:16 48.11032 16.57168 633 ft 67 kts 296°
2026-04-24 11:16 48.11341 16.56225 626 ft 134 kts 296°
2026-04-24 11:16 48.11837 16.54721 649 ft 183 kts 297°
2026-04-24 11:16 48.12409 16.52941 1175 ft 197 kts 295°
2026-04-24 11:17 48.12829 16.50961 1794 ft 205 kts 271°
2026-04-24 11:17 48.12297 16.48939 2393 ft 223 kts 230°
2026-04-24 11:17 48.10872 16.47714 2625 ft 257 kts 195°
2026-04-24 11:17 48.09065 16.47360 3081 ft 266 kts 189°
2026-04-24 11:18 48.07285 16.46713 3575 ft 266 kts 214°
2026-04-24 11:18 48.05904 16.44955 4143 ft 262 kts 229°
2026-04-24 11:18 48.04551 16.43074 4816 ft 267 kts 226°
2026-04-24 11:18 48.03147 16.41248 5567 ft 269 kts 225°
2026-04-24 11:19 48.01720 16.39397 6219 ft 274 kts 226°
2026-04-24 11:19 48.00273 16.37513 6848 ft 278 kts 226°
2026-04-24 11:19 47.98805 16.35595 7454 ft 282 kts 226°
2026-04-24 11:19 47.97402 16.33573 7961 ft 279 kts 239°
2026-04-24 11:20 47.96713 16.30943 8411 ft 272 kts 270°
2026-04-24 11:20 47.96904 16.28177 8961 ft 268 kts 289°
2026-04-24 11:20 47.97498 16.25546 9582 ft 268 kts 292°
2026-04-24 11:20 47.98133 16.22912 10128 ft 272 kts 293°
2026-04-24 11:21 47.98803 16.20178 10284 ft 290 kts 293°
2026-04-24 11:21 47.99508 16.17302 10419 ft 308 kts 292°
2026-04-24 11:21 48.00260 16.14215 10695 ft 323 kts 292°
2026-04-24 11:21 48.01033 16.11009 11135 ft 333 kts 292°
2026-04-24 11:22 48.01817 16.07730 11847 ft 337 kts 292°
2026-04-24 11:22 48.02607 16.04415 12671 ft 341 kts 292°
2026-04-24 11:22 48.03405 16.01056 13467 ft 345 kts 292°
2026-04-24 11:22 48.04214 15.97651 14222 ft 350 kts 292°
2026-04-24 11:23 48.05044 15.94153 14925 ft 355 kts 292°
2026-04-24 11:23 48.05866 15.90672 15799 ft 353 kts 294°
2026-04-24 11:23 48.06674 15.87250 16567 ft 357 kts 292°
2026-04-24 11:23 48.07508 15.83721 17235 ft 361 kts 293°
2026-04-24 11:24 48.08357 15.80109 17981 ft 365 kts 294°
2026-04-24 11:24 48.09195 15.76572 18697 ft 367 kts 294°
2026-04-24 11:24 48.10062 15.72958 19238 ft 373 kts 293°
2026-04-24 11:24 48.10958 15.69214 19700 ft 380 kts 293°
2026-04-24 11:25 48.11833 15.65539 20407 ft 379 kts 293°
2026-04-24 11:25 48.12722 15.61802 20906 ft 386 kts 292°
2026-04-24 11:25 48.13631 15.57979 21332 ft 393 kts 292°
2026-04-24 11:25 48.14543 15.54121 22014 ft 392 kts 292°
2026-04-24 11:26 48.15440 15.50248 22618 ft 395 kts 290°
2026-04-24 11:26 48.16155 15.46219 22990 ft 405 kts 286°
2026-04-24 11:26 48.16781 15.42086 23503 ft 409 kts 285°
2026-04-24 11:26 48.17416 15.37928 24011 ft 411 kts 284°
2026-04-24 11:27 48.18014 15.33721 24490 ft 414 kts 284°
2026-04-24 11:27 48.18590 15.29468 24941 ft 418 kts 283°
2026-04-24 11:27 48.19161 15.25180 25366 ft 422 kts 284°
2026-04-24 11:27 48.19737 15.20863 25847 ft 424 kts 284°
2026-04-24 11:28 48.20320 15.16508 26316 ft 427 kts 285°
2026-04-24 11:28 48.20908 15.12132 26758 ft 430 kts 284°
2026-04-24 11:28 48.21503 15.07722 27156 ft 434 kts 284°
2026-04-24 11:28 48.22104 15.03264 27576 ft 438 kts 284°
2026-04-24 11:29 48.22709 14.98765 28010 ft 441 kts 284°
2026-04-24 11:29 48.23315 14.94248 28477 ft 443 kts 284°
2026-04-24 11:29 48.23922 14.89702 28886 ft 446 kts 284°
2026-04-24 11:29 48.24531 14.85121 29285 ft 450 kts 284°
2026-04-24 11:30 48.25144 14.80507 29700 ft 453 kts 284°
2026-04-24 11:30 48.25760 14.75860 30131 ft 456 kts 284°
2026-04-24 11:30 48.26377 14.71182 30479 ft 459 kts 284°
2026-04-24 11:30 48.26995 14.66474 30827 ft 461 kts 284°
2026-04-24 11:31 48.27615 14.61739 31178 ft 463 kts 284°
2026-04-24 11:31 48.28237 14.56979 31528 ft 466 kts 284°
2026-04-24 11:31 48.28859 14.52201 31884 ft 467 kts 284°
2026-04-24 11:31 48.29483 14.47394 32221 ft 469 kts 284°
2026-04-24 11:32 48.30106 14.42569 32524 ft 472 kts 284°
2026-04-24 11:32 48.30730 14.37728 32820 ft 474 kts 285°
2026-04-24 11:32 48.31355 14.32850 33113 ft 476 kts 285°
2026-04-24 11:32 48.31981 14.27959 33378 ft 478 kts 284°
2026-04-24 11:33 48.32606 14.23052 33700 ft 478 kts 284°
2026-04-24 11:33 48.33227 14.18161 34098 ft 476 kts 284°
2026-04-24 11:33 48.33843 14.13280 34473 ft 475 kts 284°
2026-04-24 11:33 48.34455 14.08414 34825 ft 473 kts 284°
2026-04-24 11:34 48.35066 14.03550 35163 ft 473 kts 284°
2026-04-24 11:34 48.35674 13.98697 35474 ft 472 kts 284°
2026-04-24 11:34 48.36279 13.93850 35802 ft 471 kts 284°
2026-04-24 11:34 48.36879 13.89015 36141 ft 470 kts 284°
2026-04-24 11:35 48.37476 13.84193 36455 ft 469 kts 284°
2026-04-24 11:35 48.38070 13.79381 36779 ft 468 kts 284°
2026-04-24 11:35 48.38662 13.74571 37079 ft 467 kts 284°
2026-04-24 11:35 48.39249 13.69774 37378 ft 466 kts 284°
2026-04-24 11:36 48.39834 13.64984 37671 ft 465 kts 284°
2026-04-24 11:36 48.40415 13.60202 37950 ft 464 kts 284°
2026-04-24 11:36 48.40995 13.55418 38094 ft 466 kts 284°
2026-04-24 11:36 48.41578 13.50602 38146 ft 469 kts 284°
2026-04-24 11:37 48.42743 13.40945 38139 ft 464 kts 285°
2026-04-24 11:37 48.43654 13.36335 38153 ft 456 kts 297°
2026-04-24 11:37 48.45114 13.32140 38161 ft 451 kts 306°
2026-04-24 11:38 48.49145 13.25068 38161 ft 444 kts 318°
2026-04-24 11:38 48.53565 13.18534 38160 ft 446 kts 318°
2026-04-24 11:39 48.57978 13.11946 38164 ft 447 kts 317°
2026-04-24 11:39 48.62380 13.05292 38146 ft 448 kts 317°
2026-04-24 11:40 48.66779 12.98596 38157 ft 449 kts 317°
2026-04-24 11:40 48.71185 12.91865 38149 ft 450 kts 316°
2026-04-24 11:41 48.75560 12.85166 38151 ft 450 kts 316°
2026-04-24 11:41 48.79963 12.78408 38154 ft 450 kts 316°
2026-04-24 11:42 48.84386 12.71602 38151 ft 450 kts 316°
2026-04-24 11:42 48.88741 12.64882 38147 ft 449 kts 316°
2026-04-24 11:43 48.93114 12.58117 38147 ft 448 kts 316°
2026-04-24 11:43 48.97476 12.51351 38150 ft 448 kts 316°
2026-04-24 11:44 49.01829 12.44580 38149 ft 447 kts 316°
2026-04-24 11:44 49.06174 12.37804 38138 ft 447 kts 316°
2026-04-24 11:45 49.10515 12.31017 38161 ft 447 kts 315°
2026-04-24 11:45 49.14863 12.24202 38148 ft 448 kts 315°
2026-04-24 11:46 49.19213 12.17365 38154 ft 449 kts 315°
2026-04-24 11:46 49.23564 12.10505 38158 ft 449 kts 315°
2026-04-24 11:47 49.27915 12.03627 38137 ft 450 kts 315°
2026-04-24 11:47 49.32269 11.96730 38157 ft 450 kts 315°
2026-04-24 11:48 49.36620 11.89815 38163 ft 451 kts 315°
2026-04-24 11:48 49.40970 11.82883 38147 ft 451 kts 315°
2026-04-24 11:49 49.45311 11.75947 38147 ft 450 kts 314°
2026-04-24 11:49 49.49643 11.69007 38127 ft 449 kts 314°
2026-04-24 11:50 49.53960 11.62072 38144 ft 448 kts 314°
2026-04-24 11:50 49.58270 11.55129 38140 ft 448 kts 314°
2026-04-24 11:51 49.62570 11.48184 38148 ft 447 kts 314°
2026-04-24 11:51 49.66860 11.41236 38150 ft 447 kts 314°
2026-04-24 11:52 49.71136 11.34290 38148 ft 446 kts 314°
2026-04-24 11:52 49.75406 11.27338 38148 ft 446 kts 313°
2026-04-24 11:53 49.79676 11.20365 38160 ft 446 kts 313°
2026-04-24 11:53 49.83942 11.13377 38152 ft 447 kts 313°
2026-04-24 11:54 49.87489 11.07555 38160 ft 447 kts 313°
2026-04-24 11:54 49.91761 11.00525 38160 ft 448 kts 313°
2026-04-24 11:55 49.96028 10.93484 38148 ft 448 kts 312°
2026-04-24 11:55 50.00294 10.86423 38154 ft 448 kts 312°
2026-04-24 11:56 50.04552 10.79358 38163 ft 448 kts 312°
2026-04-24 11:56 50.08805 10.72278 38163 ft 448 kts 312°
2026-04-24 11:57 50.13057 10.65182 38167 ft 448 kts 312°
2026-04-24 11:57 50.17305 10.58075 38177 ft 448 kts 311°
2026-04-24 11:58 50.21541 10.50964 38166 ft 447 kts 311°
2026-04-24 11:58 50.25772 10.43843 38168 ft 447 kts 311°
2026-04-24 11:59 50.29996 10.36715 38169 ft 447 kts 311°
2026-04-24 11:59 50.34211 10.29582 38177 ft 446 kts 311°
2026-04-24 12:00 50.38365 10.22365 38184 ft 446 kts 309°
2026-04-24 12:00 50.42434 10.15032 38181 ft 445 kts 309°
2026-04-24 12:01 50.46498 10.07693 38189 ft 446 kts 309°
2026-04-24 12:01 50.50572 10.00354 38201 ft 446 kts 309°
2026-04-24 12:02 50.54642 9.93011 38195 ft 446 kts 309°
2026-04-24 12:02 50.58709 9.85653 38203 ft 446 kts 309°
2026-04-24 12:03 50.62770 9.78281 38194 ft 446 kts 308°
2026-04-24 12:03 50.66830 9.70893 38206 ft 446 kts 308°
2026-04-24 12:04 50.70800 9.63394 38203 ft 443 kts 301°
2026-04-24 12:04 50.73487 9.54728 38206 ft 439 kts 287°
2026-04-24 12:05 50.74840 9.45369 38202 ft 438 kts 279°
2026-04-24 12:05 50.75986 9.35922 38200 ft 438 kts 279°
2026-04-24 12:06 50.77153 9.26449 38202 ft 439 kts 279°
2026-04-24 12:06 50.78336 9.16975 38205 ft 440 kts 279°
2026-04-24 12:07 50.79521 9.07485 38203 ft 440 kts 279°
2026-04-24 12:07 50.80700 8.97979 38203 ft 441 kts 279°
2026-04-24 12:08 50.81870 8.88473 38202 ft 441 kts 279°
2026-04-24 12:08 50.83033 8.78958 38197 ft 440 kts 279°
2026-04-24 12:09 50.84186 8.69454 38198 ft 440 kts 279°
2026-04-24 12:09 50.85331 8.59941 38194 ft 439 kts 279°
2026-04-24 12:10 50.86467 8.50443 38194 ft 439 kts 279°
2026-04-24 12:11 50.88155 8.36192 38203 ft 439 kts 278°
2026-04-24 12:11 50.89270 8.26695 38204 ft 439 kts 278°
2026-04-24 12:12 50.90377 8.17189 38211 ft 439 kts 278°
2026-04-24 12:12 50.91480 8.07673 38220 ft 439 kts 278°
2026-04-24 12:13 50.92623 7.98159 38211 ft 440 kts 281°
2026-04-24 12:13 50.94487 7.88882 38228 ft 442 kts 286°
2026-04-24 12:14 50.96509 7.79657 38219 ft 443 kts 286°
2026-04-24 12:14 50.98510 7.70418 38236 ft 443 kts 286°
2026-04-24 12:15 51.00490 7.61160 38227 ft 443 kts 285°
2026-04-24 12:15 51.02458 7.51894 38246 ft 443 kts 285°
2026-04-24 12:16 51.04418 7.42620 38258 ft 443 kts 285°
2026-04-24 12:16 51.06370 7.33337 38261 ft 443 kts 285°
2026-04-24 12:17 51.08315 7.24050 38266 ft 443 kts 285°
2026-04-24 12:17 51.10253 7.14753 38264 ft 443 kts 285°
2026-04-24 12:18 51.12183 7.05449 38282 ft 443 kts 284°
2026-04-24 12:18 51.14109 6.96124 38291 ft 444 kts 284°
2026-04-24 12:19 51.16029 6.86783 38284 ft 443 kts 284°
2026-04-24 12:19 51.17939 6.77452 38292 ft 443 kts 284°
2026-04-24 12:20 51.19841 6.68109 38292 ft 443 kts 284°
2026-04-24 12:20 51.21731 6.58781 38289 ft 442 kts 284°
2026-04-24 12:21 51.23616 6.49438 38290 ft 442 kts 284°
2026-04-24 12:21 51.25493 6.40087 38295 ft 442 kts 284°
2026-04-24 12:22 51.27352 6.30779 38292 ft 443 kts 284°
2026-04-24 12:22 51.29227 6.21347 38284 ft 443 kts 284°
2026-04-24 12:23 51.31074 6.12014 38279 ft 443 kts 283°
2026-04-24 12:23 51.32925 6.02614 38275 ft 444 kts 283°
2026-04-24 12:24 51.34770 5.93199 38274 ft 444 kts 283°
2026-04-24 12:24 51.36607 5.83782 38271 ft 444 kts 283°
2026-04-24 12:25 51.38436 5.74356 38287 ft 443 kts 283°
2026-04-24 12:25 51.40256 5.64926 38280 ft 443 kts 283°
2026-04-24 12:26 51.42069 5.55491 38293 ft 443 kts 283°
2026-04-24 12:26 51.43874 5.46046 38293 ft 443 kts 283°
2026-04-24 12:27 51.45671 5.36599 38308 ft 443 kts 283°
2026-04-24 12:27 51.47458 5.27160 38306 ft 442 kts 283°
2026-04-24 12:28 51.49235 5.17724 38292 ft 441 kts 283°
2026-04-24 12:28 51.51001 5.08299 38293 ft 440 kts 283°
2026-04-24 12:29 51.52754 4.98894 38291 ft 439 kts 283°
2026-04-24 12:29 51.54499 4.89488 38293 ft 439 kts 283°
2026-04-24 12:30 51.56231 4.80097 38307 ft 439 kts 283°
2026-04-24 12:30 51.57958 4.70686 38292 ft 439 kts 283°
2026-04-24 12:31 51.59678 4.61272 38296 ft 439 kts 283°
2026-04-24 12:31 51.61393 4.51836 38289 ft 440 kts 283°
2026-04-24 12:32 51.63103 4.42374 38294 ft 440 kts 283°
2026-04-24 12:32 51.64807 4.32903 38289 ft 441 kts 283°
2026-04-24 12:33 51.66504 4.23415 38300 ft 441 kts 283°
2026-04-24 12:33 51.68194 4.13915 38295 ft 441 kts 283°
2026-04-24 12:34 51.69878 4.04406 38299 ft 441 kts 283°
2026-04-24 12:34 51.71553 3.94891 38304 ft 441 kts 283°
2026-04-24 12:35 51.73221 3.85367 38309 ft 441 kts 283°
2026-04-24 12:35 51.74880 3.75843 38319 ft 441 kts 283°
2026-04-24 12:36 51.76532 3.66310 38329 ft 441 kts 283°
2026-04-24 12:36 51.77896 3.58400 38326 ft 440 kts 282°
2026-04-24 12:37 51.79529 3.48881 38341 ft 439 kts 282°
2026-04-24 12:37 51.81150 3.39381 38335 ft 438 kts 282°
2026-04-24 12:38 51.82762 3.29889 38327 ft 438 kts 282°
2026-04-24 12:38 51.84171 3.20347 38324 ft 435 kts 275°
2026-04-24 12:39 51.84232 3.05812 38348 ft 430 kts 262°
2026-04-24 12:39 51.83905 3.01001 38335 ft 431 kts 262°
2026-04-24 12:40 51.83240 2.91369 38345 ft 431 kts 262°
2026-04-24 12:40 51.82598 2.81730 38338 ft 432 kts 263°
2026-04-24 12:41 51.81959 2.72062 38346 ft 432 kts 263°
2026-04-24 12:41 51.81309 2.62407 38346 ft 433 kts 262°
2026-04-24 12:42 51.80641 2.52744 38345 ft 433 kts 262°
2026-04-24 12:42 51.79966 2.43083 38348 ft 433 kts 262°
2026-04-24 12:43 51.79286 2.33419 38349 ft 433 kts 262°
2026-04-24 12:43 51.78599 2.23772 38324 ft 432 kts 262°
2026-04-24 12:44 51.77980 2.14111 38342 ft 433 kts 263°
2026-04-24 12:44 51.77430 2.04419 38353 ft 434 kts 263°
2026-04-24 12:45 51.76863 1.94720 38351 ft 434 kts 263°
2026-04-24 12:45 51.76276 1.84999 38341 ft 435 kts 263°
2026-04-24 12:46 51.75678 1.75272 38346 ft 436 kts 263°
2026-04-24 12:46 51.75074 1.65546 38356 ft 436 kts 263°
2026-04-24 12:47 51.74455 1.55805 38347 ft 436 kts 263°
2026-04-24 12:47 51.73822 1.46083 38349 ft 436 kts 263°
2026-04-24 12:48 51.73182 1.36352 38358 ft 436 kts 263°
2026-04-24 12:48 51.72540 1.26678 38340 ft 436 kts 263°
2026-04-24 12:49 51.72551 1.16824 38349 ft 438 kts 274°
2026-04-24 12:49 51.73542 1.07168 38350 ft 439 kts 278°
2026-04-24 12:50 51.74582 0.97449 38342 ft 440 kts 277°
2026-04-24 12:50 51.75599 0.87706 38350 ft 440 kts 277°
2026-04-24 12:51 51.76601 0.77938 38343 ft 441 kts 277°
2026-04-24 12:51 51.77595 0.68155 38342 ft 442 kts 277°
2026-04-24 12:52 51.78582 0.58357 38333 ft 442 kts 277°
2026-04-24 12:52 51.79563 0.48532 38335 ft 443 kts 277°
2026-04-24 12:53 51.80536 0.38702 38343 ft 443 kts 277°
2026-04-24 12:53 51.81496 0.28924 38350 ft 443 kts 277°
2026-04-24 12:54 51.82452 0.19087 38346 ft 443 kts 277°
2026-04-24 12:54 51.83400 0.09260 38345 ft 442 kts 277°
2026-04-24 12:55 51.84338 -0.00566 38360 ft 441 kts 277°
2026-04-24 12:55 51.85261 -0.10315 38342 ft 441 kts 277°
2026-04-24 12:56 51.86181 -0.20127 38349 ft 440 kts 277°
2026-04-24 12:56 51.87090 -0.29921 38347 ft 440 kts 277°
2026-04-24 12:57 51.87993 -0.39729 38347 ft 441 kts 277°
2026-04-24 12:57 51.88889 -0.49559 38345 ft 441 kts 277°
2026-04-24 12:58 51.89777 -0.59392 38344 ft 441 kts 277°
2026-04-24 12:58 51.90656 -0.69228 38341 ft 442 kts 277°
2026-04-24 12:59 51.91528 -0.79070 38327 ft 442 kts 277°
2026-04-24 12:59 51.92393 -0.88929 38320 ft 442 kts 277°
2026-04-24 13:00 51.93250 -0.98812 38313 ft 442 kts 277°
2026-04-24 13:00 51.94100 -1.08696 38314 ft 443 kts 277°
2026-04-24 13:01 51.94936 -1.18518 38322 ft 443 kts 277°
2026-04-24 13:01 51.95769 -1.28418 38295 ft 443 kts 277°
2026-04-24 13:02 51.96595 -1.38321 38291 ft 443 kts 277°
2026-04-24 13:02 51.97412 -1.48233 38300 ft 443 kts 277°
2026-04-24 13:03 51.98222 -1.58154 38300 ft 444 kts 277°
2026-04-24 13:03 51.99023 -1.68085 38299 ft 444 kts 277°
2026-04-24 13:04 51.99817 -1.78023 38300 ft 444 kts 277°
2026-04-24 13:04 52.00603 -1.87968 38302 ft 444 kts 276°
2026-04-24 13:05 52.01380 -1.97913 38294 ft 444 kts 276°
2026-04-24 13:05 52.02145 -2.07817 38300 ft 444 kts 276°
2026-04-24 13:06 52.02906 -2.17785 38307 ft 445 kts 276°
2026-04-24 13:06 52.03660 -2.27771 38318 ft 445 kts 276°
2026-04-24 13:07 52.04405 -2.37750 38307 ft 445 kts 276°
2026-04-24 13:07 52.05141 -2.47720 38300 ft 445 kts 276°
2026-04-24 13:08 52.05869 -2.57712 38299 ft 445 kts 276°
2026-04-24 13:08 52.06590 -2.67713 38308 ft 446 kts 276°
2026-04-24 13:09 52.07658 -2.82761 38305 ft 447 kts 276°
2026-04-24 13:09 52.08355 -2.92745 38304 ft 447 kts 276°
2026-04-24 13:10 52.09049 -3.02808 38298 ft 448 kts 276°
2026-04-24 13:10 52.09736 -3.12892 38300 ft 448 kts 276°
2026-04-24 13:11 52.10414 -3.22974 38295 ft 449 kts 276°
2026-04-24 13:11 52.11084 -3.33073 38298 ft 449 kts 276°
2026-04-24 13:12 52.11744 -3.43140 38287 ft 449 kts 275°
2026-04-24 13:12 52.12399 -3.53261 38285 ft 450 kts 275°
2026-04-24 13:13 52.13044 -3.63390 38272 ft 449 kts 275°
2026-04-24 13:13 52.13681 -3.73522 38277 ft 449 kts 275°
2026-04-24 13:14 52.14305 -3.83574 38273 ft 448 kts 275°
2026-04-24 13:14 52.14922 -3.93669 38264 ft 448 kts 275°
2026-04-24 13:15 52.15530 -4.03765 38261 ft 448 kts 275°
2026-04-24 13:15 52.16131 -4.13885 38261 ft 449 kts 274°
2026-04-24 13:16 52.16725 -4.24038 38257 ft 450 kts 274°
2026-04-24 13:16 52.17308 -4.34134 38259 ft 451 kts 274°
2026-04-24 13:17 52.17886 -4.44322 38259 ft 451 kts 274°
2026-04-24 13:17 52.18457 -4.54537 38255 ft 453 kts 274°
2026-04-24 13:18 52.19020 -4.64759 38261 ft 454 kts 274°
2026-04-24 13:18 52.19575 -4.75019 38273 ft 455 kts 274°
2026-04-24 13:19 52.20120 -4.85246 38267 ft 456 kts 274°
2026-04-24 13:19 52.20659 -4.95540 38271 ft 456 kts 274°
2026-04-24 13:20 52.21191 -5.05864 38268 ft 457 kts 273°
2026-04-24 13:20 52.21715 -5.16210 38270 ft 458 kts 273°
2026-04-24 13:21 52.22231 -5.26586 38270 ft 458 kts 273°
2026-04-24 13:21 52.22652 -5.35195 38266 ft 458 kts 273°
2026-04-24 13:22 52.23151 -5.45566 38263 ft 458 kts 273°
2026-04-24 13:22 52.23642 -5.55940 38263 ft 458 kts 273°
2026-04-24 13:23 52.24124 -5.66241 38267 ft 458 kts 274°
2026-04-24 13:23 52.25158 -5.76504 38277 ft 458 kts 280°
2026-04-24 13:24 52.26436 -5.86713 38269 ft 458 kts 280°
2026-04-24 13:24 52.27696 -5.96918 38266 ft 458 kts 279°
2026-04-24 13:25 52.28928 -6.07140 38270 ft 459 kts 279°
2026-04-24 13:25 52.30136 -6.17328 38271 ft 460 kts 279°
2026-04-24 13:26 52.31343 -6.27604 38274 ft 461 kts 279°
2026-04-24 13:26 52.32544 -6.37906 38272 ft 462 kts 278°
2026-04-24 13:27 52.33741 -6.48241 38273 ft 462 kts 278°
2026-04-24 13:27 52.34931 -6.58604 38267 ft 463 kts 278°
2026-04-24 13:28 52.36111 -6.68973 38268 ft 464 kts 278°
2026-04-24 13:28 52.37286 -6.79371 38253 ft 465 kts 278°
2026-04-24 13:29 52.38444 -6.89714 38256 ft 465 kts 278°
2026-04-24 13:29 52.39602 -7.00131 38257 ft 465 kts 277°
2026-04-24 13:30 52.40753 -7.10583 38247 ft 466 kts 277°
2026-04-24 13:30 52.41893 -7.21027 38250 ft 466 kts 277°
2026-04-24 13:31 52.43025 -7.31488 38245 ft 466 kts 277°
2026-04-24 13:31 52.44149 -7.41958 38242 ft 466 kts 277°
2026-04-24 13:32 52.45257 -7.52366 38250 ft 467 kts 277°
2026-04-24 13:32 52.46363 -7.62855 38233 ft 467 kts 277°
2026-04-24 13:33 52.47461 -7.73364 38236 ft 467 kts 277°
2026-04-24 13:33 52.48551 -7.83885 38224 ft 468 kts 276°
2026-04-24 13:34 52.49632 -7.94419 38220 ft 468 kts 276°
2026-04-24 13:34 52.50706 -8.04980 38214 ft 469 kts 276°
2026-04-24 13:35 52.51771 -8.15547 38211 ft 469 kts 276°
2026-04-24 13:35 52.52827 -8.26130 38200 ft 470 kts 276°
2026-04-24 13:36 52.53869 -8.36669 38199 ft 470 kts 276°
2026-04-24 13:36 52.54910 -8.47293 38190 ft 471 kts 276°
2026-04-24 13:37 52.55942 -8.57932 38188 ft 472 kts 275°
2026-04-24 13:37 52.56967 -8.68604 38186 ft 473 kts 275°
2026-04-24 13:38 52.57984 -8.79294 38186 ft 474 kts 275°
2026-04-24 13:38 52.58986 -8.89938 38187 ft 474 kts 275°
2026-04-24 13:39 52.59986 -9.00665 38181 ft 475 kts 275°
2026-04-24 13:39 52.60980 -9.11426 38184 ft 476 kts 275°
2026-04-24 13:40 52.61962 -9.22182 38185 ft 476 kts 274°
2026-04-24 13:40 52.62939 -9.32994 38175 ft 477 kts 274°
2026-04-24 13:41 52.63899 -9.43724 38169 ft 477 kts 274°
2026-04-24 13:41 52.64862 -9.54607 38168 ft 477 kts 274°
2026-04-24 13:42 52.65810 -9.65434 38178 ft 479 kts 274°
2026-04-24 13:42 52.66750 -9.76295 38174 ft 479 kts 274°
2026-04-24 13:43 52.67676 -9.87109 38176 ft 480 kts 274°
2026-04-24 13:43 52.68600 -9.98012 38175 ft 480 kts 274°
2026-04-24 13:44 52.69513 -10.08916 38200 ft 480 kts 274°
2026-04-24 13:44 52.70420 -10.19867 38177 ft 482 kts 273°
2026-04-24 13:45 52.71317 -10.30835 38178 ft 483 kts 272°
2026-04-24 13:45 52.72206 -10.41825 38174 ft 483 kts 272°
2026-04-24 13:46 52.73085 -10.52830 38169 ft 484 kts 272°
2026-04-24 13:46 52.73951 -10.63789 38169 ft 484 kts 272°
2026-04-24 13:47 52.74810 -10.74808 38163 ft 484 kts 272°
2026-04-24 13:47 52.75659 -10.85821 38159 ft 484 kts 272°
2026-04-24 13:48 52.76496 -10.96828 38161 ft 483 kts 272°
2026-04-24 13:48 52.77324 -11.07835 38164 ft 483 kts 272°
2026-04-24 13:49 52.78141 -11.18851 38163 ft 483 kts 272°
2026-04-24 13:49 52.78948 -11.29884 38167 ft 484 kts 272°
2026-04-24 13:50 52.79746 -11.40932 38159 ft 484 kts 272°
2026-04-24 13:50 52.80536 -11.51999 38165 ft 485 kts 271°
2026-04-24 13:51 52.81310 -11.63005 38158 ft 485 kts 271°
2026-04-24 13:51 52.82081 -11.74107 38156 ft 487 kts 271°
2026-04-24 13:52 52.82842 -11.85238 38162 ft 487 kts 271°
2026-04-24 13:52 52.83595 -11.96387 38163 ft 488 kts 271°
2026-04-24 13:53 52.84339 -12.07562 38150 ft 488 kts 271°
2026-04-24 13:53 52.85071 -12.18727 38147 ft 488 kts 271°
2026-04-24 13:54 52.85790 -12.29848 38150 ft 489 kts 271°
2026-04-24 13:54 52.86503 -12.41050 38146 ft 489 kts 271°
2026-04-24 13:55 52.87206 -12.52263 38143 ft 489 kts 270°
2026-04-24 13:55 52.87897 -12.63462 38141 ft 489 kts 270°
2026-04-24 13:56 52.88578 -12.74664 38180 ft 488 kts 270°
2026-04-24 13:56 52.89244 -12.85793 38134 ft 489 kts 270°
2026-04-24 13:57 52.89903 -12.96998 38136 ft 488 kts 270°
2026-04-24 13:57 52.90551 -13.08184 38134 ft 488 kts 270°
2026-04-24 13:58 52.91188 -13.19368 38131 ft 487 kts 270°
2026-04-24 13:58 52.91814 -13.30554 38158 ft 487 kts 270°
2026-04-24 13:59 52.92429 -13.41732 38126 ft 487 kts 270°
2026-04-24 13:59 52.93030 -13.52836 38111 ft 486 kts 270°
2026-04-24 14:00 52.93624 -13.64000 38117 ft 486 kts 270°
2026-04-24 14:00 52.94206 -13.75155 38110 ft 485 kts 270°
2026-04-24 14:01 52.94777 -13.86311 38118 ft 486 kts 270°
2026-04-24 14:01 52.95338 -13.97486 38105 ft 486 kts 270°
2026-04-24 14:02 52.95891 -14.08679 38102 ft 487 kts 270°
2026-04-24 14:02 52.96433 -14.19881 38102 ft 488 kts 270°
2026-04-24 14:03 52.96965 -14.31108 38101 ft 488 kts 270°
2026-04-24 14:03 52.97488 -14.42353 38098 ft 490 kts 270°
2026-04-24 14:04 52.98001 -14.53635 38096 ft 490 kts 269°
2026-04-24 14:04 52.98505 -14.64918 38088 ft 490 kts 269°
2026-04-24 14:05 52.98994 -14.76128 38085 ft 490 kts 269°
2026-04-24 14:05 52.99477 -14.87410 38120 ft 490 kts 269°
2026-04-24 14:06 53.00185 -14.98692 38076 ft 495 kts 277°
2026-04-24 14:06 53.02067 -15.09763 38082 ft 500 kts 287°
2026-04-24 14:07 53.04537 -15.20571 38075 ft 500 kts 287°
2026-04-24 14:07 53.06998 -15.31323 38072 ft 500 kts 287°
2026-04-24 14:08 53.09432 -15.42177 38073 ft 500 kts 287°
2026-04-24 14:08 53.11837 -15.53057 38071 ft 501 kts 287°
2026-04-24 14:09 53.13829 -15.62131 38071 ft 501 kts 287°
2026-04-24 14:09 53.16216 -15.73049 38068 ft 501 kts 287°
2026-04-24 14:10 53.18593 -15.83974 38068 ft 502 kts 287°
2026-04-24 14:10 53.20968 -15.94943 38063 ft 502 kts 287°
2026-04-24 14:11 53.23313 -16.05830 38064 ft 502 kts 287°
2026-04-24 14:12 53.26836 -16.22299 38057 ft 502 kts 286°
2026-04-24 14:12 53.29171 -16.33289 38058 ft 502 kts 286°
2026-04-24 14:13 53.31494 -16.44283 38053 ft 501 kts 286°
2026-04-24 14:13 53.33793 -16.55220 38051 ft 501 kts 286°
2026-04-24 14:14 53.36094 -16.66229 38045 ft 501 kts 286°
2026-04-24 14:14 53.39529 -16.82777 38052 ft 502 kts 286°
2026-04-24 14:15 53.41810 -16.93843 38039 ft 502 kts 286°
2026-04-24 14:15 53.44082 -17.04923 38042 ft 502 kts 286°
2026-04-24 14:16 53.46345 -17.16023 38043 ft 502 kts 286°
2026-04-24 14:17 53.49703 -17.32607 38044 ft 503 kts 286°
2026-04-24 14:17 53.53062 -17.49340 38043 ft 503 kts 285°
2026-04-24 14:18 53.55284 -17.60493 38032 ft 503 kts 285°
2026-04-24 14:18 53.57498 -17.71662 38027 ft 503 kts 285°
2026-04-24 14:19 53.59703 -17.82854 38027 ft 504 kts 285°
2026-04-24 14:19 53.61898 -17.94055 38062 ft 504 kts 285°
2026-04-24 14:20 53.64073 -18.05228 38022 ft 504 kts 285°
2026-04-24 14:20 53.66251 -18.16474 38023 ft 505 kts 285°
2026-04-24 14:21 53.68423 -18.27756 38023 ft 505 kts 285°
2026-04-24 14:21 53.70582 -18.39042 38021 ft 505 kts 285°
2026-04-24 14:22 53.72728 -18.50321 38025 ft 505 kts 285°
2026-04-24 14:23 53.75932 -18.67296 38017 ft 506 kts 285°
2026-04-24 14:23 53.78057 -18.78632 38017 ft 506 kts 284°
2026-04-24 14:24 53.80169 -18.89974 38015 ft 505 kts 284°
2026-04-24 14:24 53.82260 -19.01269 38014 ft 505 kts 284°
2026-04-24 14:25 53.84351 -19.12631 38011 ft 505 kts 284°
2026-04-24 14:25 53.86431 -19.24007 38021 ft 506 kts 284°
2026-04-24 14:26 53.88502 -19.35401 38010 ft 506 kts 284°
2026-04-24 14:26 53.90553 -19.46758 37999 ft 506 kts 284°
2026-04-24 14:27 53.92605 -19.58188 37995 ft 506 kts 284°
2026-04-24 14:27 53.94643 -19.69614 37999 ft 506 kts 284°
2026-04-24 14:28 53.96669 -19.81043 38003 ft 506 kts 284°
2026-04-24 14:28 53.98691 -19.92520 38000 ft 507 kts 284°
2026-04-24 14:29 54.00674 -20.04009 37998 ft 506 kts 282°
2026-04-24 14:29 54.02356 -20.15547 37998 ft 505 kts 280°
2026-04-24 14:30 54.03684 -20.25310 37994 ft 505 kts 280°
2026-04-24 14:30 54.05548 -20.38847 37992 ft 505 kts 280°
2026-04-24 14:31 54.07175 -20.50493 38005 ft 506 kts 281°
2026-04-24 14:31 54.08804 -20.62154 37991 ft 506 kts 281°
2026-04-24 14:32 54.10425 -20.73848 37985 ft 506 kts 280°
2026-04-24 14:32 54.12030 -20.85537 37987 ft 506 kts 280°
2026-04-24 14:33 54.13623 -20.97235 37980 ft 506 kts 280°
2026-04-24 14:33 54.15195 -21.08872 37988 ft 507 kts 280°
2026-04-24 14:33 54.15987 -21.14781 38120 ft 511 kts 280°
2026-04-24 14:34 54.16777 -21.20693 38398 ft 511 kts 280°
2026-04-24 14:34 54.17563 -21.26585 38742 ft 508 kts 280°
2026-04-24 14:34 54.18341 -21.32447 39046 ft 505 kts 280°
2026-04-24 14:34 54.19115 -21.38297 39264 ft 505 kts 280°
2026-04-24 14:35 54.19885 -21.44150 39450 ft 505 kts 280°
2026-04-24 14:35 54.20652 -21.50005 39640 ft 505 kts 280°
2026-04-24 14:35 54.21417 -21.55866 39844 ft 505 kts 280°
2026-04-24 14:36 54.22942 -21.67630 39951 ft 508 kts 280°
2026-04-24 14:36 54.24457 -21.79403 39970 ft 505 kts 280°
2026-04-24 14:37 54.25941 -21.91032 39962 ft 502 kts 280°
2026-04-24 14:37 54.27414 -22.02665 39961 ft 499 kts 280°
2026-04-24 14:38 54.28869 -22.14264 39967 ft 498 kts 280°
2026-04-24 14:38 54.30313 -22.25876 39969 ft 499 kts 279°
2026-04-24 14:39 54.31751 -22.37531 39965 ft 501 kts 279°
2026-04-24 14:39 54.33182 -22.49235 39970 ft 503 kts 279°
2026-04-24 14:40 54.34609 -22.61001 39965 ft 505 kts 279°
2026-04-24 14:40 54.36032 -22.72831 39966 ft 507 kts 279°
2026-04-24 14:41 54.37446 -22.84701 39956 ft 508 kts 279°
2026-04-24 14:41 54.38840 -22.96502 39949 ft 508 kts 279°
2026-04-24 14:42 54.40008 -23.06471 39964 ft 508 kts 279°
2026-04-24 14:42 54.41613 -23.20297 39954 ft 508 kts 279°
2026-04-24 14:43 54.42980 -23.32191 39944 ft 507 kts 279°
2026-04-24 14:43 54.44334 -23.44084 39950 ft 507 kts 279°
2026-04-24 14:44 54.45676 -23.55976 39944 ft 506 kts 279°
2026-04-24 14:44 54.46994 -23.67770 39969 ft 505 kts 279°
2026-04-24 14:45 54.48308 -23.79644 39940 ft 505 kts 279°
2026-04-24 14:45 54.49611 -23.91529 39939 ft 505 kts 278°
2026-04-24 14:46 54.50901 -24.03409 39947 ft 505 kts 278°